Location: Cheadle
(51.0146°N, 113.5417°W)
Time: 13:55:01
(UTC+00:00)

Oscar 19 - Pass Details

Date: 08 December 2023
Orbit: 771 x 789 km, 98.9° (Epoch: 04 March)

Event Time Altitude Azimuth Distance (km) Brightness Sun altitude
Rises 13:41:22 0° 8° (N) 3,275 13.8 -15.1°
Reaches altitude 10° 13:43:56 10° 358° (N) 2,346 12.9 -14.8°
Maximum altitude 13:48:20 29° 300° (WNW) 1,396 11.4 -14.1°
Drops below altitude 10° 13:52:45 10° 241° (WSW) 2,343 12.7 -13.5°
Sets 13:55:19 0° 231° (SW) 3,270 13.6 -13.1°
